User: anonymous   Login
Location: Unspecified
(0.0000°N, 0.0000°E)
Time: 09:14:33
(UTC+00:00)
Language:

LEMUR 2 SOKOLSKY - Orbit

View from above orbital plane
View from above orbital plane
View from above satellite
View from above satellite

Ground track
Ground track

The orbit is defined by the following mean orbital elements,

1 41872U 16062D   23097.15550821  .11138107  12259-4  10830-2 0  9994
2 41872  51.6348 345.3724 0009865 245.5325 114.4672 16.37347696355508
Epoch (UTC): 07 April 2023 03:43:55
Eccentricity: 0.0009865
inclination: 51.6348°
perigee height: 166 km
apogee height: 179 km
right ascension of ascending node: 345.3724°
argument of perigee: 245.5325°
revolutions per day: 16.37347696
mean anomaly at epoch: 114.4672°

The dashed part of the orbit path shows where the satellite is in the earth's shadow,  

DLR